Volver al catálogo

STARLINK-34926

ActivoComunicacionesSSO
NORAD 65194·PAYLOAD·🇺🇸 United States

Lanzado Aug 14, 2025 desde Vandenberg Space Force Base

Loading…

Próximos Pases (próximas 24 horas)

TLE

ActualizadoSource: CelesTrak SupGP

Época: Sep 14, 2026, 23:06 UTC

1 65194C 25175W   26257.96298611  .00071145  00000+0  22089-2 0  2576
2 65194  97.2843 126.9957 0001836  92.8289 212.6527 15.33396970    17

Sigue STARLINK-34926 en tiempo real con AllMySat

Download on the App Store